PROBA 1 1 26958U 01049B 21104.52493146 -.00000219 00000-0 -13155-4 0 9999 2 26958 97.7635 61.5785 0072261 336.4731 23.3150 14.95672680 60352 BIRD 2 1 26959U 01049C 21103.19318345 .00001689 00000-0 46386-4 0 9991 2 26959 97.8021 162.5322 0009411 106.9373 253.2903 15.38801193 80703 CUTE-1 1 27844U 03031E 21104.45958060 .00000046 00000-0 40338-4 0 9999 2 27844 98.6825 113.6379 0008667 263.2703 96.7489 14.22300689922927 CUBESAT XI 4 1 27848U 03031J 21104.01153777 .00000035 00000-0 35871-4 0 9991 2 27848 98.6883 113.7637 0008561 279.7978 80.2233 14.21878602922684 GENESIS 1 1 29252U 06029A 21104.15255057 .00000904 00000-0 52922-4 0 9992 2 29252 64.5224 37.7817 0037234 332.0365 27.8756 15.18577805813834 FALCONSAT 3 1 30776U 07006E 21104.20471947 .00003733 00000-0 91986-4 0 9991 2 30776 35.4330 152.9682 0001681 19.5709 340.5083 15.40160260783199 GENESIS 2 1 31789U 07028A 21103.22342947 .00000280 00000-0 23922-4 0 9997 2 31789 64.5050 83.0809 0016920 206.0995 153.9276 15.17709659760654 APRIZESAT 4 1 35684U 09041D 21104.43919935 .00000057 00000-0 15362-4 0 9994 2 35684 98.3062 98.5378 0045811 288.0358 71.5863 14.79355091631687 APRIZESAT 3 1 35686U 09041F 21104.16604361 .00000127 00000-0 20013-4 0 9997 2 35686 98.1403 175.6851 0073551 147.0657 213.5172 14.87490174634839 PROBA 2 1 36037U 09059B 21104.32580557 -.00000000 00000-0 10663-4 0 9996 2 36037 98.2249 294.0585 0013251 357.7518 2.3616 14.53146915607028 APRIZESAT 5 1 37792U 11044E 21104.53027155 .00000064 00000-0 17708-4 0 9991 2 37792 98.3849 320.8330 0056882 290.1703 69.3392 14.75473893519885 APRIZESAT 6 1 37793U 11044F 21104.10078038 .00000053 00000-0 17052-4 0 9991 2 37793 98.4312 295.7714 0046292 334.5448 139.2230 14.72527495518827 TET-1 1 38710U 12039D 21104.39584197 .00004918 00000-0 78016-4 0 9996 2 38710 97.5623 154.6328 0002808 135.4422 224.7057 15.53896737490577 PROBA V 1 39159U 13021A 21104.03127153 -.00000019 00000-0 98099-5 0 9995 2 39159 98.4159 155.1576 0002997 263.4096 96.6742 14.22998707412259 CUSAT 1 1 39266U 13055B 21104.49298159 .00006080 00000-0 15819-3 0 9996 2 39266 80.9834 339.2527 0618010 70.5442 296.1430 14.40071536392346 STPSAT-3 1 39380U 13064A 21104.42020676 .00001359 00000-0 40896-4 0 9991 2 39380 40.4997 87.6981 0001995 14.8847 345.2026 15.38487158414789 APRIZESAT 7 1 39416U 13066A 21104.02954053 .00000136 00000-0 22198-4 0 9991 2 39416 97.5369 101.9612 0040406 335.2500 24.6775 14.84058496400370 APRIZESAT 8 1 39425U 13066K 21104.46429517 .00000101 00000-0 19200-4 0 9993 2 39425 97.5786 92.9024 0052063 8.1797 352.0253 14.81264212399722 BUGSAT 1 1 40014U 14033E 21104.20061348 -.00000010 00000-0 48743-5 0 9995 2 40014 98.1057 81.4772 0032160 19.5144 340.7307 14.95691642371963 SAUDISAT 4 1 40016U 14033G 21104.14182676 .00000046 00000-0 13830-4 0 9994 2 40016 97.6753 316.9172 0049786 93.0620 267.6288 14.75344456367113 TABLETSAT AURORA 1 40017U 14033H 21104.36517687 -.00000026 00000-0 34498-5 0 9996 2 40017 98.0688 68.0084 0024209 31.8732 328.3974 14.93806473371495 APRIZESAT 9 1 40018U 14033J 21104.46890613 .00000057 00000-0 16893-4 0 9992 2 40018 97.6988 293.8272 0072119 150.0276 210.5090 14.70039961365759 APRIZESAT 10 1 40019U 14033K 21104.44816623 .00000034 00000-0 13942-4 0 9997 2 40019 97.7312 283.0687 0084096 185.0690 174.9673 14.67095391365078 AISAT 1 40054U 14034B 21104.38183433 .00000496 00000-0 75776-4 0 9991 2 40054 98.3133 255.3618 0011602 245.6009 114.3990 14.78356320366065 NLS 7.1/CANX 4 1 40055U 14034C 21104.38311447 .00000114 00000-0 25067-4 0 9995 2 40055 98.2950 244.0389 0012927 285.2483 74.7295 14.75031955365493 NLS 7.2/CANX 5 1 40056U 14034D 21104.38756140 .00000118 00000-0 25669-4 0 9991 2 40056 98.2949 244.0306 0012947 285.4872 74.4906 14.75022993365495 TDS 1 1 40076U 14037H 21104.16578686 .00000318 00000-0 44704-4 0 9992 2 40076 98.4433 307.8971 0007473 25.0303 335.1271 14.84703344366071 TIANTUO 2 1 40144U 14053B 21104.52271507 .00000839 00000-0 26615-4 0 9997 2 40144 97.2243 188.0238 0010199 310.8898 144.8339 15.35404261369246 TECHNOSAT 1 42829U 17042E 21104.44228456 .00000229 00000-0 28261-4 0 9998 2 42829 97.4786 337.3471 0014373 7.5684 352.5749 14.91252695204144 FLYING LAPTOP 1 42831U 17042G 21103.81235617 .00000804 00000-0 85897-4 0 9995 2 42831 97.4809 336.9566 0014300 10.0445 350.1051 14.91273870204055